Regional Weather Roundup
Issued by NWS Mt. Holly, NJ

Home | Current Version | Previous Version | Text Only | Print | Product List | Glossary On
Versions: 1 2 3 4 5 6 7 8 9 10 11 12 13 14 15 16 17 18 19 20 21 22 23 24 25 26 27 28 29 30 31 32 33 34 35 36 37 38 39 40 41 42 43 44 45 46 47 48 49 50
000
ASUS41 KPHI 201110
RWRPHI

REGIONAL WEATHER ROUNDUP
NATIONAL WEATHER SERVICE MOUNT HOLLY NJ
700 AM EDT MON OCT 20 2014

NOTE:  "FAIR" INDICATES FEW OR NO CLOUDS BELOW 12,000 FEET WITH NO
SIGNIFICANT WEATHER AND/OR OBSTRUCTIONS TO VISIBILITY.

 * = STATION DOES NOT REPORT PRECIPITATION (E.G. RAIN, SNOW, ETC.)
        OR FOG.

NJZ015>026-201200-
SOUTHERN NEW JERSEY

CITY           SKY/WX    TMP DP  RH WIND       PRES   REMARKS
POMONA         CLEAR     32  29  88 CALM      30.13S
RIO GRANDE*    CLEAR     36  30  80 CALM      30.14R
MILLVILLE      CLEAR     31  30  96 CALM      30.13S
WRIGHTSTOWN    CLEAR     32  29  87 S3        30.11R
MOUNT HOLLY    CLEAR     32  29  88 CALM      30.12S
TRENTON        CLEAR     34  31  88 CALM      30.11S

$$
NJZ001>014-201200-
NORTHERN NEW JERSEY

CITY           SKY/WX    TMP DP  RH WIND       PRES   REMARKS
SUSSEX         MOCLDY    33  29  85 CALM      30.08S
ANDOVER*         N/A     33  31  92 CALM      30.09S
MORRISTOWN     CLEAR     34  32  93 CALM      30.10S
NEWARK         MOCLDY    40  30  67 W7        30.11R
TETERBORO      PTCLDY    39  29  67 CALM      30.09S
CALDWELL       PTCLDY    36  29  75 CALM      30.11R
SOMERVILLE     PTCLDY    31  28  89 CALM      30.10S
ALLAIRE*       CLEAR     37  27  65 SW6       30.11S WCI  33
TOMS RIVER*    CLEAR     28  25  86 CALM      30.13R

$$
PAZ043-044-047-054-055-060>062-066>071-201200-
EASTERN PENNSYLVANIA

CITY           SKY/WX    TMP DP  RH WIND       PRES   REMARKS
PHILADELPHIA   PTCLDY    41  31  67 S7        30.13S
NORTH PHILA    CLEAR     36  30  79 CALM      30.14R
BLUE BELL      CLEAR     32  32 100 CALM      30.11R
DOYLESTOWN     CLEAR     31  30  96 CALM      30.10S
QUAKERTOWN*    CLEAR     30  28  93 CALM      30.11R
POTTSTOWN      CLEAR     31  29  92 CALM      30.12S
LANCASTER      CLEAR     33  31  92 CALM      30.10R
COATESVILLE    CLEAR     37  32  81 CALM      30.11R
READING        CLEAR     36  31  82 CALM      30.10R
ALLENTOWN      PTCLDY    33  29  85 CALM      30.10R
MOUNT POCONO   MOCLDY    32  28  85 W5        30.03S WCI  27
HAZLETON       PTCLDY    30  30 100 CALM      30.07S
WILKES BARRE   PTCLDY    34  28  79 E5        30.05S WCI  30

$$
DEZALL-MDZ008-012-015-019-020-201200-
DELAWARE AND EASTERN MARYLAND

CITY           SKY/WX    TMP DP  RH WIND       PRES   REMARKS
WILMINGTON     CLEAR     38  35  89 CALM      30.13S
DOVER          CLEAR     39  38  95 S2        30.10S
GEORGETOWN     CLEAR     35  33  92 CALM      30.14S
EASTON         CLEAR     39  39 100 CALM      30.16S
PATUXENT       PTCLDY    39  37  92 CALM      30.13R
OCEAN CITY     CLEAR     33  31  92 CALM      30.14R
WALLOPS ISLAND CLEAR     39  36  89 CALM      30.14S
CAMBRIDGE      CLEAR     37  36  93 CALM      30.13S
SALISBURY      CLEAR     35  30  82 E3        30.13S

$$
PAZ001-021-NYZ056-072-MDZ011-DCZ001-201200-
OTHER NEARBY LOCATIONS

CITY           SKY/WX    TMP DP  RH WIND       PRES   REMARKS
HARRISBURG     CLEAR     38  34  85 E5        30.09R WCI  34
STATE COLLEGE  MOCLDY    41  36  81 CALM      30.03F
WILLIAMSPORT   CLOUDY    36  31  82 CALM      30.06S
BINGHAMTON     PTCLDY    33  28  81 S6        29.98F WCI  28
NEW YORK CITY  PTCLDY    43  29  57 W3        30.12S
BALTIMORE      MOCLDY    38  35  89 CALM      30.11R
WASHINGTON DC  PTCLDY    46  40  79 SW3       30.13R

$$


USA.gov is the U.S. government's official web portal to all federal, state and local government web resources and services.